This is the latest recevied weather packets stored in our database for station/object KD0TGF-W. If no packets are shown the sender has not sent any weather packets the latest 10 day(s).
| Time | Temp. | Humidity | Pressure | Rain* | Wind** | Luminosity | Snow |
|---|---|---|---|---|---|---|---|
| 1778002255 | 9.44° C | 47% | 1010.2 hPa | 0 mm | - | - | - |
| 1778002194 | 9.44° C | 48% | 1010.2 hPa | 0 mm | - | - | - |
| 1778002135 | 9.44° C | 46% | 1010.3 hPa | 0 mm | - | - | - |
| 1778002075 | 9.44° C | 48% | 1010.3 hPa | 0 mm | - | - | - |
| 1778002015 | 9.44° C | 45% | 1010.2 hPa | 0 mm | - | - | - |
| 1778001954 | 10° C | 46% | 1010.2 hPa | 0 mm | - | - | - |
| 1778001894 | 10° C | 48% | 1010.2 hPa | 0 mm | - | - | - |
| 1778001836 | 10° C | 49% | 1010.1 hPa | 0 mm | - | - | - |
| 1778001775 | 9.44° C | 47% | 1010.3 hPa | 0 mm | - | - | - |
| 1778001714 | 9.44° C | 46% | 1010.3 hPa | 0 mm | - | - | - |
| 1778001654 | 9.44° C | 49% | 1010.2 hPa | 0 mm | - | - | - |
| 1778001595 | 9.44° C | 47% | 1010.2 hPa | 0 mm | - | - | - |
| 1778001535 | 9.44° C | 47% | 1010.2 hPa | 0 mm | - | - | - |
| 1778001474 | 9.44° C | 48% | 1010.2 hPa | 0 mm | - | - | - |
| 1778001415 | 9.44° C | 48% | 1010.2 hPa | 0 mm | - | - | - |
| 1778001355 | 9.44° C | 48% | 1010.2 hPa | 0 mm | - | - | - |
| 1778001294 | 9.44° C | 46% | 1010.2 hPa | 0 mm | - | - | - |
| 1778001234 | 9.44° C | 47% | 1010.2 hPa | 0 mm | - | - | - |
| 1778001175 | 9.44° C | 47% | 1010.2 hPa | 0 mm | - | - | - |
| 1778001115 | 9.44° C | 49% | 1010.2 hPa | 0 mm | - | - | - |
| 1778001055 | 8.89° C | 49% | 1010.1 hPa | 0 mm | - | - | - |
| 1778000994 | 8.89° C | 50% | 1010.2 hPa | 0 mm | - | - | - |
| 1778000934 | 8.89° C | 51% | 1010.2 hPa | 0 mm | - | - | - |
| 1778000875 | 8.33° C | 50% | 1010.2 hPa | 0 mm | - | - | - |
| 1778000815 | 8.33° C | 49% | 1010.2 hPa | 0 mm | - | - | - |
* Rain latest hour (hover to see other rain measurements)
** Current wind speed in m/s (hover to see current wind gust speed)